Baku, Azerbaijan

10:31 AM +04 on May 24, 2018 (GMT +0400)
Bina

Weather History for UBBB - February, 2018

Change the Weather History Date:

Monday, February 5, 2018

  Actual Average (WUND) Record (WUND)
Temperature  
Mean Temperature 44 °F -  
Max Temperature 49 °F - - (-1)
Min Temperature 40 °F - - (-1)
Degree Days  
Heating Degree Days 20    
Moisture  
Dew Point 42 °F    
Average Humidity 92    
Maximum Humidity 100    
Minimum Humidity 74    
Precipitation  
Precipitation 0.00 in - - ()
Sea Level Pressure  
Sea Level Pressure 29.93 in    
Wind  
Wind Speed 19 mph ()    
Max Wind Speed 32 mph    
Max Gust Speed 44 mph    
Visibility 2.8 miles    
Events Fog    
Averages and records for this station are not official NWS values.
T = Trace of Precipitation, MM = Missing Value Source: Averaged Metar Reports

Daily Weather History Graph

Daily Weather History Graph

Search for Another Location

Airport or City:

Astronomy

Feb. 05, 2018 Rise Set
Actual Time 7:45 AM +04 6:02 PM +04
Civil Twilight 7:16 AM +04 6:31 PM +04
Nautical Twilight 6:44 AM +04 7:03 PM +04
Astronomical Twilight 6:12 AM +04 7:35 PM +04
Moon 11:36 PM +04 (2/5) 10:42 AM +04 (2/5)
Length of Visible Light 11h 14m
Length of Day
10h 17m
Waning Gibbous, 73% of the Moon is Illuminated
Feb 5
Waning Gibbous
Feb 7
Last Quarter
Feb 16
New
Feb 23
First Quarter
Mar 2
Full

Hourly Weather History & Observations

Time (+04) Temp. Windchill Dew Point Humidity Pressure Visibility Wind Dir Wind Speed Gust Speed Precip Events Conditions
12:00 AM 42.8 °F 35.1 °F 41.0 °F 93% 30.01 in 0.3 mi SSE 16.1 mph - N/A Fog Fog
12:30 AM 41.0 °F 32.5 °F 41.0 °F 100% 29.98 in 0.2 mi SSE 17.3 mph - N/A Fog Fog
1:00 AM 41 °F - 40 °F 92% 29.97 in 1 mi SE 15.7 mph - -   Mist
1:00 AM 41.0 °F 31.4 °F 41.0 °F 100% 29.95 in 0.2 mi South 21.9 mph - N/A Fog Fog
1:30 AM 42.8 °F 34.0 °F 42.8 °F 100% 29.95 in 0.1 mi South 20.7 mph - N/A Fog Fog
2:00 AM 42.8 °F 33.5 °F 42.8 °F 100% 29.92 in 0.2 mi South 23.0 mph 34.5 mph N/A Fog Fog
2:30 AM 42.8 °F 33.3 °F 42.8 °F 100% 29.92 in - South 24.2 mph 35.7 mph N/A Fog Fog
3:00 AM 42.8 °F 33.5 °F 42.8 °F 100% 29.92 in 0.5 mi South 23.0 mph 34.5 mph N/A Fog Fog
3:30 AM 42.8 °F 33.5 °F 42.8 °F 100% 29.89 in 0.4 mi South 23.0 mph 34.5 mph N/A Fog Fog
4:00 AM 43 °F - 41 °F 92% 29.91 in 1 mi SE 22.4 mph - -   Mist
4:00 AM 42.8 °F 34.0 °F 42.8 °F 100% 29.89 in 0.4 mi South 20.7 mph 32.2 mph N/A Fog Fog
4:30 AM 42.8 °F 33.8 °F 42.8 °F 100% 29.89 in 1.1 mi South 21.9 mph - N/A   Overcast
5:00 AM 42.8 °F 33.1 °F 42.8 °F 100% 29.86 in 1.0 mi South 25.3 mph 36.8 mph N/A   Overcast
5:30 AM 42.8 °F 33.1 °F 42.8 °F 100% 29.86 in 1.0 mi South 25.3 mph - N/A   Overcast
6:00 AM 42.8 °F 33.8 °F 42.8 °F 100% 29.86 in 0.9 mi South 21.9 mph 33.4 mph N/A   Overcast
6:30 AM 42.8 °F 33.3 °F 42.8 °F 100% 29.86 in 0.5 mi South 24.2 mph - N/A Fog Fog
7:00 AM 43 °F - 42 °F 93% 29.87 in 1 mi SE 20.1 mph - -   Mist
7:00 AM 42.8 °F 33.8 °F 42.8 °F 100% 29.86 in 0.7 mi South 21.9 mph - N/A   Overcast
7:30 AM 44.6 °F 35.9 °F 42.8 °F 93% 29.86 in 0.5 mi South 23.0 mph - N/A Fog Fog
8:00 AM 42.8 °F 33.5 °F 42.8 °F 100% 29.86 in 0.5 mi South 23.0 mph - N/A Fog Fog
8:30 AM 44.6 °F 37.2 °F 42.8 °F 93% 29.86 in 1.5 mi South 17.3 mph - N/A   Overcast
9:00 AM 44.6 °F 36.9 °F 42.8 °F 93% 29.86 in 1.0 mi SSW 18.4 mph - N/A   Overcast
9:30 AM 44.6 °F 35.9 °F 42.8 °F 93% 29.86 in 1.4 mi South 23.0 mph - N/A   Overcast
10:00 AM 44 °F - 43 °F 93% 29.88 in 1 mi SE 24.6 mph - -   Mist
10:00 AM 44.6 °F 35.9 °F 44.6 °F 100% 29.86 in 1.0 mi South 23.0 mph - N/A   Overcast
10:30 AM 44.6 °F 35.5 °F 44.6 °F 100% 29.86 in 1.2 mi South 25.3 mph 36.8 mph N/A   Overcast
11:00 AM 46.4 °F 37.5 °F 44.6 °F 93% 29.83 in 3.1 mi South 27.6 mph 39.1 mph N/A   Mostly Cloudy
11:30 AM 46.4 °F 38.1 °F 44.6 °F 93% 29.83 in 5.0 mi South 24.2 mph 35.7 mph N/A   Mostly Cloudy
12:00 PM 48.2 °F - 44.6 °F 87% 29.83 in 6.2 mi South 23.0 mph 34.5 mph N/A   Mostly Cloudy
12:30 PM 48.2 °F - 44.6 °F 87% 29.83 in 6.2 mi South 23.0 mph - N/A   Mostly Cloudy
1:00 PM 49 °F - 43 °F 74% 29.85 in 2 mi SSE 22.4 mph - -   Mist
1:00 PM 50.0 °F - 44.6 °F 82% 29.83 in 6.2 mi South 17.3 mph - N/A   Mostly Cloudy
1:30 PM 48.2 °F - 42.8 °F 82% 29.86 in 6.2 mi SSW 17.3 mph - N/A   Mostly Cloudy
2:00 PM 48.2 °F - 42.8 °F 82% 29.86 in 6.2 mi SSW 15.0 mph - N/A   Mostly Cloudy
2:30 PM 46.4 °F 40.7 °F 42.8 °F 87% 29.86 in 6.2 mi SSW 12.7 mph - N/A   Mostly Cloudy
3:00 PM 46.4 °F 40.7 °F 42.8 °F 87% 29.86 in 6.2 mi SW 12.7 mph - N/A   Mostly Cloudy
3:30 PM 48.2 °F - 42.8 °F 82% 29.89 in 6.2 mi WNW 11.5 mph - N/A   Mostly Cloudy
4:00 PM 44 °F - 40 °F 80% 29.91 in 1 mi West 13.4 mph - -   Mist
4:00 PM 42.8 °F 35.8 °F 41.0 °F 93% 29.92 in 3.1 mi NW 13.8 mph - N/A   Overcast
4:30 PM 42.8 °F 35.8 °F 41.0 °F 93% 29.92 in 3.1 mi NW 13.8 mph - N/A   Overcast
5:00 PM 42.8 °F 35.4 °F 41.0 °F 93% 29.95 in 3.1 mi NNW 15.0 mph - N/A   Overcast
5:30 PM 44.6 °F 38.1 °F 41.0 °F 87% 29.95 in 4.3 mi North 13.8 mph - N/A   Mostly Cloudy
6:00 PM 44.6 °F 37.4 °F 41.0 °F 87% 29.98 in 4.3 mi North 16.1 mph - N/A   Mostly Cloudy
6:30 PM 44.6 °F 35.5 °F 41.0 °F 87% 29.98 in 5.0 mi NNW 25.3 mph 36.8 mph N/A   Mostly Cloudy
7:00 PM 44 °F - 41 °F 86% 30.00 in 2 mi West 20.1 mph - -   Mostly Cloudy
7:00 PM 44.6 °F 35.1 °F 42.8 °F 93% 30.01 in 5.0 mi NNW 27.6 mph 39.1 mph N/A   Mostly Cloudy
7:30 PM 44.6 °F 35.3 °F 42.8 °F 93% 30.04 in 3.7 mi NNW 26.5 mph 38.0 mph N/A   Overcast
8:00 PM 44.6 °F 35.5 °F 42.8 °F 93% 30.04 in 3.7 mi NNW 25.3 mph 36.8 mph N/A   Overcast
8:30 PM 44.6 °F 35.5 °F 41.0 °F 87% 30.04 in 4.3 mi NNW 25.3 mph 36.8 mph N/A   Overcast
9:00 PM 44.6 °F 35.3 °F 41.0 °F 87% 30.04 in 5.0 mi NNW 26.5 mph 39.1 mph N/A   Overcast
9:30 PM 44.6 °F 34.4 °F 42.8 °F 93% 30.06 in 5.0 mi NNW 32.2 mph 43.7 mph N/A   Overcast
10:00 PM 45 °F - 41 °F 82% 30.08 in 6 mi 24.6 mph - -   Overcast
10:00 PM 44.6 °F 34.7 °F 42.8 °F 93% 30.06 in 4.3 mi NNW 29.9 mph 41.4 mph N/A   Overcast
10:30 PM 46.4 °F 36.9 °F 42.8 °F 87% 30.09 in 5.0 mi NNW 32.2 mph 43.7 mph N/A   Overcast
11:00 PM 44.6 °F 34.4 °F 42.8 °F 93% 30.09 in 5.0 mi NNW 32.2 mph 43.7 mph N/A   Overcast
11:30 PM 46.4 °F 37.2 °F 42.8 °F 87% 30.12 in 5.0 mi NNW 29.9 mph 41.4 mph N/A   Overcast